Fort Polk, LA

8:42 AM CDT on September 20, 2017 (GMT -0500)
Fort Polk

Weather History for KDNK - January, 2013

Change the Weather History Date:

Monday, January 7, 2013

  Actual Average (KPOE) Record (KPOE)
Temperature  
Mean Temperature 46 °F -  
Max Temperature 55 °F 58 °F 73 °F (2008)
Min Temperature 36 °F 38 °F 17 °F (2014)
Degree Days  
Heating Degree Days 20    
Moisture  
Dew Point 36 °F    
Average Humidity 72    
Maximum Humidity 93    
Minimum Humidity 47    
Precipitation  
Precipitation 0.00 in - - ()
Sea Level Pressure  
Sea Level Pressure 30.26 in    
Wind  
Wind Speed 4 mph (ENE)    
Max Wind Speed 9 mph    
Max Gust Speed -    
Visibility 10 miles    
Events      
Averages and records for this station are not official NWS values.
T = Trace of Precipitation, MM = Missing Value Source: NWS Daily Summary

Daily Weather History Graph

Daily Weather History Graph

Search for Another Location

Airport or City:

Trip Planner

Search our weather history database for the weather conditions in past years. The results will help you decide how hot, cold, wet, or windy it might be!

Date:

Astronomy

Jan. 07, 2013 Rise Set
Actual Time 7:11 AM CST 5:25 PM CST
Civil Twilight 6:45 AM CST 5:52 PM CST
Nautical Twilight 6:15 AM CST 6:22 PM CST
Astronomical Twilight 5:45 AM CST 6:51 PM CST
Moon 2:40 AM CST (1/7) 1:33 PM CST (1/7)
Length of Visible Light 11h 07m
Length of Day
10h 14m
Waning Crescent, 22% of the Moon is Illuminated
Jan 7
Waning Crescent
Jan 11
New
Jan 18
First Quarter
Jan 26
Full
Feb 3
Last Quarter

Hourly Weather History & Observations

Time (CST) Temp. Windchill Dew Point Humidity Pressure Visibility Wind Dir Wind Speed Gust Speed Precip Events Conditions
12:53 AM 37.0 °F - 35.1 °F 93% 30.32 in 4.0 mi Calm Calm - N/A   Clear
1:53 AM 37.9 °F 35.5 °F 35.1 °F 89% 30.31 in 10.0 mi NE 3.5 mph - N/A   Clear
2:53 AM 37.9 °F 34.4 °F 35.1 °F 89% 30.31 in 10.0 mi ENE 4.6 mph - N/A   Clear
3:53 AM 37.0 °F 32.4 °F 34.0 °F 89% 30.30 in 10.0 mi ENE 5.8 mph - N/A   Clear
4:53 AM 37.0 °F 32.4 °F 34.0 °F 89% 30.29 in 10.0 mi ENE 5.8 mph - N/A   Clear
5:53 AM 37.0 °F 31.6 °F 34.0 °F 89% 30.30 in 10.0 mi ENE 6.9 mph - N/A   Clear
6:53 AM 36.0 °F 31.1 °F 34.0 °F 93% 30.31 in 9.0 mi ENE 5.8 mph - N/A   Clear
7:53 AM 37.0 °F 31.0 °F 34.0 °F 89% 30.33 in 7.0 mi ENE 8.1 mph - N/A   Clear
8:53 AM 39.9 °F 34.5 °F 36.0 °F 86% 30.34 in 10.0 mi ENE 8.1 mph - N/A   Clear
9:53 AM 46.0 °F 41.4 °F 35.1 °F 66% 30.35 in 10.0 mi East 9.2 mph - N/A   Clear
10:53 AM 50.0 °F - 36.0 °F 59% 30.32 in 10.0 mi East 6.9 mph - N/A   Clear
11:53 AM 53.1 °F - 36.0 °F 52% 30.29 in 10.0 mi NE 3.5 mph - N/A   Clear
12:53 PM 55.0 °F - 36.0 °F 49% 30.25 in 10.0 mi NE 9.2 mph - N/A   Clear
1:53 PM 55.9 °F - 36.0 °F 47% 30.23 in 10.0 mi Variable 4.6 mph - N/A   Clear
2:53 PM 55.9 °F - 37.0 °F 49% 30.21 in 10.0 mi NE 6.9 mph - N/A   Clear
3:53 PM 55.0 °F - 37.9 °F 53% 30.21 in 10.0 mi NE 4.6 mph - N/A   Clear
4:53 PM 53.1 °F - 39.0 °F 59% 30.20 in 10.0 mi ENE 4.6 mph - N/A   Clear
5:53 PM 50.0 °F - 39.0 °F 66% 30.20 in 10.0 mi Calm Calm - N/A   Clear
6:53 PM 46.9 °F - 39.9 °F 77% 30.20 in 10.0 mi Calm Calm - N/A   Clear
7:53 PM 46.0 °F 44.8 °F 37.9 °F 73% 30.19 in 10.0 mi East 3.5 mph - N/A   Partly Cloudy
8:53 PM 46.9 °F - 37.0 °F 68% 30.18 in 10.0 mi East 4.6 mph - N/A   Clear
9:53 PM 46.9 °F - 37.0 °F 68% 30.16 in 10.0 mi East 4.6 mph - N/A   Clear
10:53 PM 46.9 °F - 37.9 °F 71% 30.18 in 10.0 mi East 3.5 mph - N/A   Scattered Clouds
11:53 PM 48.0 °F - 37.9 °F 68% 30.16 in 10.0 mi East 4.6 mph - N/A   Overcast